Helicity
118 154 188 197 174 252 243 236 229 193 135 216 243 240 278 231 190 110 91 60 98 -6 22 119 133 111 112 119 124 119 134 154 140 79 65 111 119 120
176 149 130 154 153 146 220 227 234 229 211 216 190 239 220 163 126 108 58 55 22 22 137 133 114 111 107 132 143 140 138 134 150 134 92 119 59 110
157 151 140 122 171 180 207 192 165 158 203 187 214 223 248 204 141 117 101 92 70 79 96 104 164 159 137 134 161 144 135 127 110 110 91 98 92 76
115 138 116 144 150 158 175 161 135 164 193 72 240 279 195 153 146 172 117 153 156 146 141 117 153 170 150 165 162 150 137 116 146 131 162 131 120 76
65 79 90 127 119 149 155 158 158 163 187 207 252 172 167 217 163 169 172 196 193 205 158 110 88 157 113 101 114 156 198 200 238 171 101 152 119 118
91 91 82 98 120 117 148 131 137 150 160 151 190 272 251 193 162 177 169 149 158 204 126 137 124 101 85 117 55 40 -5 51 35 51 113 139 110 128
101 114 103 98 117 120 140 114 137 159 121 120 137 131 149 166 163 173 152 166 158 124 108 103 134 131 129 141 119 115 124 124 124 128 113 106 121 112
77 73 101 98 117 89 169 202 250 135 119 113 99 125 174 232 258 237 205 159 138 158 132 97 136 151 142 147 107 95 98 120 117 113 117 121 114 114
93 111 103 95 104 128 141 161 190 233 281 214 217 233 232 273 275 218 212 167 157 111 79 64 126 112 127 126 111 110 110 119 127 130 125 125 114 95
140 140 130 138 134 117 153 169 198 220 234 251 255 323 317 306 244 170 159 140 113 143 166 117 132 141 168 172 152 139 125 119 109 98 94 88 85 87
80 146 174 188 171 176 193 220 224 185 247 314 288 277 284 253 267 178 184 161 145 180 192 168 161 130 120 154 151 166 183 179 149 149 150 149 140 130
160 249 274 227 235 278 251 201 183 221 205 184 192 202 217 233 242 194 189 185 155 116 143 148 134 103 65 92 180 207 102 127 172 174 191 179 154 179
140 192 155 187 175 218 214 193 154 154 166 179 188 202 204 218 216 187 179 163 150 149 180 172 159 119 118 111 104 135 98 118 123 140 145 159 166 167
131 128 124 144 151 159 163 169 171 173 179 197 204 206 190 177 173 176 161 142 121 109 117 149 156 146 151 126 108 80 80 95 116 121 139 138 154 149
69 84 101 120 152 173 196 218 215 186 172 175 171 169 162 137 133 133 109 89 105 99 106 139 152 158 157 141 130 116 97 113 134 130 160 179 168 128
96 82 90 93 104 96 102 119 119 122 127 120 143 132 136 159 149 157 140 151 148 149 144 127 135 152 160 136 132 113 114 102 110 133 152 146 119 90
81 70 69 72 76 79 92 106 112 133 154 137 145 158 151 156 139 130 108 103 99 110 131 136 123 113 113 102 113 95 89 102 104 101 112 126 78 60
78 67 63 60 62 71 90 108 123 150 146 148 146 140 131 123 100 99 98 93 96 111 117 123 133 121 93 66 16 69 96 90 83 71 74 85 49 51
86 69 52 55 74 94 106 123 118 120 109 97 85 74 72 72 96 90 94 98 94 91 82 86 97 101 102 86 38 30 100 109 96 77 62 50 42 59
81 67 53 59 70 77 86 90 89 100 82 70 68 72 81 79 89 101 102 82 74 53 51 67 86 99 94 67 43 52 69 98 91 63 53 55 53 28
97 85 74 78 77 71 81 86 87 88 77 65 58 69 75 82 94 90 77 68 61 65 58 71 99 65 86 78 73 71 87 74 66 62 39 41 27 17
110 92 86 89 91 97 100 106 84 103 93 73 70 63 63 64 65 57 51 45 52 70 86 95 104 109 94 89 73 55 79 108 62 32 15 21 37 8
123 105 98 101 108 103 109 104 86 75 76 80 76 64 56 60 52 46 45 56 61 71 71 67 73 83 94 92 65 71 54 81 55 46 41 31 15 -7
Wind_Speed
84 82 81 84 84 83 79 77 73 86 84 71 63 52 52 57 61 61 59 67 58 58 71 67 60 53 53 49 42 39 40 39 35 36 36 37 38 42
85 87 88 87 84 78 81 80 82 87 96 76 72 65 56 55 50 53 41 40 53 72 64 62 49 51 48 50 51 52 50 44 43 42 43 45 49 57
82 87 90 88 87 87 88 88 82 75 78 87 81 65 65 67 54 64 61 60 67 64 61 60 61 59 59 57 61 60 61 53 58 54 54 63 65 70
80 81 87 85 89 85 83 84 87 85 94 94 80 74 64 55 68 58 62 61 61 65 68 70 68 64 61 58 54 55 58 57 57 58 63 69 76 83
83 84 83 82 88 87 85 85 80 82 84 88 74 68 65 54 61 63 64 62 67 72 70 65 62 59 58 60 50 50 62 68 67 64 65 76 81 78
81 81 83 82 81 80 80 81 83 83 79 77 77 72 66 58 60 69 79 72 77 64 55 52 54 60 63 52 34 39 44 46 50 51 50 54 58 58
76 76 77 77 74 71 73 75 72 75 77 76 77 65 61 64 68 69 73 71 66 59 59 61 58 68 69 64 60 59 54 49 41 39 42 45 44 45
67 67 64 63 61 61 58 55 52 62 70 79 77 73 70 66 61 62 62 65 66 57 65 73 63 69 69 67 68 69 69 68 66 66 64 62 64 61
45 46 49 46 40 36 37 41 47 53 59 66 69 63 57 56 58 60 55 56 64 67 73 79 71 74 68 67 68 70 71 70 71 72 72 73 74 74
30 33 35 39 42 41 41 42 45 50 51 48 50 48 45 49 52 53 59 62 66 64 59 71 63 70 71 69 70 73 74 74 75 76 76 78 80 83
18 25 29 31 37 35 37 40 41 44 40 35 35 38 44 49 54 54 61 66 71 66 64 70 69 75 78 79 73 69 71 76 82 84 84 83 83 87
28 26 25 24 29 34 31 30 35 36 36 38 43 45 48 52 54 54 59 66 68 71 62 75 73 77 82 72 66 75 83 84 87 87 87 87 86 85
30 26 29 29 30 32 30 34 32 30 39 44 49 52 54 57 59 59 59 62 68 70 67 74 73 78 75 83 75 75 84 82 84 87 87 85 84 84
31 31 31 32 33 34 35 35 37 39 43 46 49 53 56 60 62 62 62 62 62 67 71 70 73 77 83 91 94 80 84 86 84 85 85 87 89 88
31 31 32 35 37 38 39 41 43 45 45 47 52 55 57 58 59 61 60 60 63 62 62 66 70 75 78 88 94 95 97 86 85 82 83 85 88 84
35 36 36 37 38 39 40 42 45 47 48 50 54 55 57 58 60 62 63 67 67 66 67 66 67 70 81 82 86 92 87 88 83 85 86 85 80 76
36 38 40 42 44 45 46 47 49 51 53 53 56 59 58 59 60 62 63 64 66 71 72 68 67 66 68 73 83 80 82 83 82 85 83 86 77 71
40 41 43 45 48 50 51 53 54 56 56 55 57 57 59 62 63 64 62 65 69 71 73 74 77 78 72 69 59 74 77 79 79 79 76 77 76 68
42 43 45 47 50 53 55 56 57 55 51 53 54 55 56 59 62 64 66 66 70 71 72 73 74 76 84 89 72 60 76 75 75 73 68 65 68 72
43 46 48 50 51 53 53 54 53 54 52 53 55 56 58 59 61 64 66 69 73 73 75 72 71 71 75 83 83 79 64 69 66 67 66 65 65 68
49 51 51 51 52 52 53 53 53 53 52 55 56 57 58 60 63 66 68 70 72 72 75 72 70 70 69 70 72 71 66 59 52 58 65 66 66 61
52 54 55 54 54 54 55 55 56 55 56 55 56 58 59 61 64 65 67 70 71 72 72 70 70 68 66 65 72 70 65 61 56 56 59 56 57 59
52 53 54 54 53 53 54 56 57 56 54 52 54 56 58 62 61 63 65 69 70 72 71 70 68 65 63 63 63 64 60 64 63 62 56 52 52 52
Wind_Direction
270 270 270 270 270 274 274 272 272 280 281 282 284 288 289 294 291 295 295 290 293 292 291 292 294 294 296 296 291 286 284 284 286 292 298 299 300 307
272 271 270 270 271 270 272 274 276 277 279 282 284 286 288 293 294 287 290 297 293 289 296 296 293 290 291 293 293 291 288 283 285 288 290 293 295 299
274 272 272 269 269 270 271 273 274 275 279 280 283 285 285 286 285 281 288 293 295 296 296 295 294 292 291 292 293 292 288 286 288 290 291 294 294 292
277 276 273 272 268 268 271 270 273 273 277 281 284 281 278 282 283 287 292 294 296 299 297 295 294 293 293 294 292 290 290 289 288 288 291 292 292 289
276 276 276 275 271 269 268 270 274 276 278 279 283 274 275 287 291 292 293 299 300 301 298 299 297 295 290 294 295 293 293 291 290 287 289 290 289 290
279 277 276 275 275 274 270 270 274 275 280 282 281 272 280 290 293 293 295 301 301 303 302 301 302 299 296 300 266 260 251 255 254 258 277 285 283 282
282 280 279 277 276 276 275 275 274 277 278 281 276 292 289 291 291 298 298 300 304 304 305 302 302 295 295 301 303 305 305 304 295 286 282 282 276 271
285 283 282 279 276 278 278 284 283 280 276 275 279 287 293 294 297 300 300 302 302 304 295 291 300 299 299 302 303 304 305 305 304 302 301 299 296 294
293 290 284 281 280 280 285 287 292 291 287 283 286 293 298 301 300 301 302 302 297 293 296 292 299 300 305 307 307 306 306 305 304 303 302 301 300 298
318 306 294 283 278 280 283 290 294 296 295 300 300 303 309 308 306 302 296 296 298 304 309 302 307 305 307 308 308 307 306 305 305 304 302 301 300 298
55 338 308 298 290 286 287 289 295 300 310 318 318 315 312 306 305 303 300 302 301 306 310 307 308 307 307 306 307 308 309 308 306 304 302 301 300 299
68 357 336 319 298 295 301 307 304 301 302 308 307 309 311 313 315 314 310 307 307 306 310 309 308 311 309 310 311 311 310 310 308 306 304 302 301 300
53 343 332 339 339 328 325 311 311 316 312 311 306 309 312 313 315 316 315 312 308 307 311 312 309 309 308 308 311 312 311 311 309 308 305 303 302 300
18 359 350 344 338 333 327 323 320 319 317 316 314 314 314 314 315 316 316 315 313 310 311 312 309 310 309 307 307 312 312 312 310 308 306 304 301 299
11 3 351 343 338 335 332 329 326 324 322 320 318 317 318 319 319 319 319 319 318 317 317 316 314 313 311 309 308 309 311 313 312 310 309 306 304 302
356 353 350 347 344 341 338 335 332 328 324 323 322 321 322 323 322 322 320 320 319 319 321 321 319 317 313 313 312 311 313 311 314 312 310 307 306 304
350 345 340 337 335 333 333 332 331 329 326 325 324 323 324 325 325 325 324 323 321 320 321 323 323 320 319 317 316 316 316 315 316 314 313 309 308 307
339 336 334 333 331 329 328 326 327 327 326 327 326 326 324 324 323 325 326 325 323 324 323 324 325 324 323 324 322 321 320 319 319 319 317 313 310 310
332 332 332 331 330 329 328 327 326 329 331 330 328 329 329 327 327 327 327 328 326 326 327 327 327 327 322 319 326 331 323 322 321 321 321 317 312 307
330 327 327 327 327 328 328 327 327 327 328 329 329 329 330 330 330 330 331 330 328 329 329 329 329 328 325 322 323 326 331 326 324 322 321 316 309 301
320 321 323 323 324 325 326 325 326 326 326 326 327 327 329 330 331 331 332 331 331 331 330 331 331 330 328 328 325 327 330 332 328 324 318 312 303 302
316 317 318 319 320 321 322 323 324 324 323 323 323 325 327 329 330 332 333 333 333 332 331 332 332 332 331 329 326 328 330 332 331 323 315 307 301 297
313 314 316 318 319 319 320 322 322 322 322 323 325 326 328 328 332 333 334 335 336 336 337 335 336 336 334 332 332 331 332 329 324 316 314 311 300 290